Regional Weather Roundup
Issued by NWS Green Bay, WI

Home | Current Version | Previous Version | Graphics & Text | Print | Product List | Glossary Off
Versions: 1 2 3 4 5 6 7 8 9 10 11 12 13 14 15 16 17 18 19 20 21 22 23 24 25 26 27 28 29 30 31 32 33 34 35 36 37 38 39 40 41 42 43 44 45 46 47 48 49 50

000
ASUS43 KGRB 012311
RWRGRB

NORTH-CENTRAL AND NORTHEAST WISCONSIN REGIONAL WEATHER ROUNDUP
NATIONAL WEATHER SERVICE GREEN BAY WI
600 PM CDT SUN MAY 01 2016

WIZ005-009-010>012-018-019-020000-
NORTH CENTRAL WISCONSIN

CITY           SKY/WX    TMP DP  RH WIND       PRES   REMARKS
IRONWOOD         N/A     48  34  57 N10       30.12S
MANITOWISH WTR CLOUDY    56  34  43 NE8       30.10R
ARBOR VITAE    CLOUDY    59  32  35 NE5       30.09R
EAGLE RIVER    MOSUNNY   57  26  30 NE8       30.08R
LAND O LAKES   CLOUDY    58  30  35 NE8       30.10S
RHINELANDER    CLOUDY    58  28  32 E7        30.08S
PHILLIPS       CLOUDY    59  31  35 NE8       30.07S
ANTIGO         PTSUNNY   55  32  40 CALM      30.08R
TOMAHAWK       CLOUDY    58  27  30 NE5       30.07S
MERRILL        CLOUDY    60  31  33 E9        30.07R
$$

WIZ013-073-020000-
NORTHEAST WISCONSIN

CITY           SKY/WX    TMP DP  RH WIND       PRES   REMARKS
IRON MOUNTAIN  CLOUDY    57  32  38 E9        30.08R
MARINETTE      SUNNY     54  36  50 E10       30.10S
OCONTO         SUNNY     55  37  52 E9        30.09S
$$

WIZ017-030-035>037-045-020000-
CENTRAL WISCONSIN

CITY           SKY/WX    TMP DP  RH WIND       PRES   REMARKS
MEDFORD        PTSUNNY   60  30  32 E8        30.05S
WAUSAU         CLOUDY    61  30  31 E14       30.04S
MOSINEE        NOT AVBL
MARSHFIELD     CLOUDY    59  34  39 SE8       30.05S
WISC RAPIDS    CLOUDY    58  29  33 E15G22    30.07R
STEVENS POINT  MOSUNNY   55  33  44 E13       30.07R
WAUPACA        MOSUNNY   58  34  40 E13       30.08S
SHAWANO        SUNNY     60  33  36 E10G16    30.09R
CLINTONVILLE   MOSUNNY   57  32  38 E15       30.08S
WAUTOMA        CLOUDY    56  35  45 NE17G23   30.06S
$$

WIZ038-039-048-051-020000-
FOX VALLEY

CITY           SKY/WX    TMP DP  RH WIND       PRES   REMARKS
NWS GREEN BAY  SUNNY     55  40  56 NE17      30.09R
APPLETON       MOSUNNY   55  36  47 E16G23    30.07R
OSHKOSH        CLOUDY    53  40  61 E15       30.06R
FOND DU LAC    CLOUDY    54  40  59 NE14      30.06S
$$

WIZ022-050-052-020000-
EAST CENTRAL WISCONSIN

CITY           SKY/WX    TMP DP  RH WIND       PRES   REMARKS
EPHRAIM        FAIR      54  36  51 E8        30.09F
STURGEON BAY   SUNNY     54  37  54 E10G16    30.12S
MANITOWOC      CLOUDY    49  38  65 NE7       30.09R
SHEBOYGAN      CLOUDY    47  40  76 NE13      30.07S
$$

LMZ563-521-522-541>543-020000-
LAKESHORE

STATION/POSITION TIME  TEMP    WIND        PRES    VSBY  WAVE
                       AIR SEA DIR/SP/G                  HT/PER
                 (UTC) (F)     (DEG/KT/KT) (MB)    (MI)  (FT/S)
SHEBOYGAN LKSHOR 2300   42      20/ 16/ 17 1018.9S
KEWAUNEE LKSHORE 2200   45      30/ 11/ 16 1018.0F
NORTHPORT PIER   2200   48     120/  2/  3 1019.3F
N MID LAKE BUOY  2250   42 39  330/  6/ 10 1019.2F         0
CHAMBERS ISLAND  2240   48      30/  7/  9 1019.3F
MENOMINEE LKSHOR 2200   46      10/  7/  8 1018.4S
$$




USA.gov is the U.S. government's official web portal to all federal, state and local government web resources and services.